Tracking 19145 objects as of 26-Apr-2018
HD Live streaming from Space Station
objects crossing your sky now

COSMOS 970 DEB

Track COSMOS 970 DEB now!
10-day predictions


NORAD ID: 10563
Int'l Code: 1977-121E
Perigee: 870.4 km
Apogee: 1,026.0 km
Inclination: 65.8 °
Period: 103.9 minutes
Semi major axis: 7319 km
RCS: 0.0231 m2 (small)
Launch date: December 21, 1977
Source: Commonwealth of Independent States (former USSR) (CIS)
Launch site: TYURATAM MISSILE AND SPACE COMPLEX (TTMTR)

Note: This is SATELLITE DEBRIS
aabbcc
Your satellite tracking list
Your tracking list is empty




NASA's NSSDC Master Catalog

Two Line Element Set (TLE):
1 10563U 77121E   18115.92355698  .00000224  00000-0  25331-3 0  9991
2 10563  65.8487 311.1613 0106334 359.0487   1.0362 13.86465369 24687
Source of the keplerian elements: AFSPC